[[{"header":{"parameterUnit":"m.s-1","parameterCategory":1,"la1":30.2991,"la2":30.254,"lo1":-89.0895,"lo2":-89.0444,"dy":0.0017,"dx":0.0017,"nx":28,"ny":28,"refTime":"2025-06-22T03:00:00:Z","depth":0,"parameterNumber":2,"parameterNumberName":"U-component_of_WINDS"},"data":[0,0,0,0,0,0,0,0,0,0,0,0,0,0,0,0,0,0,0,0,0,0,0,0,0,0,0,0,0,0,0,0,0,0,0,0,0,0,0,0,0,0,0,0,0,0,0,0,0,0,0,0,0,0,0,0,0,0,-0.7652,-0.7652,0,-0.7679,-0.7679,-0.768,-0.7658,-0.7657,-0.7656,-0.7655,-0.7685,-0.7687,-0.7689,0,0,0,0,0,0,0,0,0,0,0,0,0,-0.7584,-0.7585,-0.7652,-0.7652,-0.7653,-0.7679,-0.7679,-0.768,-0.7658,-0.7657,-0.7656,-0.7655,-0.7685,-0.7687,-0.7689,0,0,0,0,0,0,0,0,0,0,0,0,0,-0.7612,-0.7586,-0.7652,-0.7645,-0.7645,-0.7679,-0.7679,-0.768,-0.7659,-0.7657,-0.7656,-0.7654,-0.7684,-0.7687,-0.7689,-0.7732,0,0,-0.7697,-0.7698,0,0,0,0,0,0,0,0,-0.7611,-0.7615,-0.7646,-0.7646,-0.7645,-0.7664,-0.7666,-0.7697,-0.7659,-0.7653,-0.7655,-0.7654,-0.7679,-0.7682,-0.769,-0.7734,-0.7735,-0.7697,-0.7698,-0.7699,-0.77,0,0,0,0,0,0,0,-0.7609,-0.7614,-0.7663,-0.7646,-0.7646,-0.7641,-0.7644,-0.7672,-0.7674,-0.7654,-0.7652,-0.7656,-0.7679,-0.7688,-0.7691,-0.7735,-0.7697,-0.7699,-0.77,-0.7701,-0.7817,-0.7818,0,0,0,0,0,0,-0.7607,-0.7612,-0.7662,-0.7664,-0.7624,-0.7644,-0.7647,-0.7659,-0.7674,-0.7674,-0.7657,-0.7655,-0.7684,-0.7688,-0.7692,-0.7745,-0.7699,-0.7702,-0.7703,-0.7815,-0.7817,-0.7819,0,0,0,0,0,0,-0.7606,-0.7612,-0.7661,-0.7637,-0.7643,-0.7646,-0.7661,-0.7661,-0.767,-0.7676,-0.7676,-0.7666,-0.7684,-0.7688,-0.7722,-0.7745,-0.7703,-0.7705,-0.7813,-0.7816,-0.7818,-0.785,0,0,0,0,0,0,-0.7604,-0.7612,-0.7627,-0.7638,-0.7645,-0.769,-0.7662,-0.7662,-0.7674,-0.7671,-0.7684,-0.7685,-0.7683,-0.7719,-0.7725,-0.7748,-0.7707,-0.7811,-0.7814,-0.7817,-0.7847,-0.7853,-0.7858,0,0,0,0,0,-0.7602,-0.7636,-0.7628,-0.7634,-0.7664,-0.7692,-0.7696,-0.7692,-0.7676,-0.7692,-0.7696,-0.7685,-0.7741,-0.7723,-0.7729,-0.7753,-0.781,-0.7813,-0.7817,-0.7844,-0.7852,-0.7858,0,0,0,0,0,0,-0.7628,-0.7637,-0.7629,-0.7667,-0.7679,-0.7688,-0.7709,-0.77,-0.7717,-0.7714,-0.7709,-0.7712,-0.7748,-0.7754,-0.7733,-0.7797,-0.7773,-0.7778,-0.7792,-0.7799,-0.7805,-0.7803,-0.7709,0,0,0,0,0,-0.7638,-0.7659,-0.7666,-0.7699,-0.7705,-0.7706,-0.7717,-0.7713,-0.7726,-0.7731,-0.7737,-0.775,-0.7771,-0.7785,-0.7804,-0.7847,-0.7851,-0.7867,-0.7873,-0.7877,-0.7883,-0.7907,-0.7915,-0.783,-0.783,-0.783,0,0,-0.766,-0.7667,-0.7681,-0.7704,-0.7713,-0.7735,-0.771,-0.7735,-0.7752,-0.7735,-0.7768,-0.7773,-0.7787,-0.7826,-0.7843,-0.7832,-0.7906,-0.7882,-0.7886,-0.7888,-0.7911,-0.7919,-0.7927,-0.7833,-0.7832,-0.7832,0,0,-0.7711,-0.7718,-0.7747,-0.7756,-0.7769,-0.777,-0.7776,-0.7787,-0.779,-0.7823,-0.7811,-0.7831,-0.7866,-0.7878,-0.7888,-0.7943,-0.7934,-0.795,-0.7981,-0.8005,-0.8011,-0.8017,-0.8039,-0.8046,-0.7954,-0.7954,-0.7954,0,-0.7737,-0.777,-0.7763,-0.7789,-0.78,-0.7785,-0.7815,-0.7824,-0.7843,-0.7852,-0.7838,-0.7884,-0.7892,-0.7934,-0.7948,-0.7956,-0.7965,-0.7949,-0.8011,-0.8016,-0.8022,-0.8043,-0.8051,-0.7956,-0.7956,-0.7956,-0.7956,0,-0.7801,-0.7824,-0.7846,-0.7865,-0.7878,-0.7906,-0.7905,-0.7919,-0.7914,-0.7916,-0.795,-0.7959,-0.7981,-0.799,-0.7986,-0.8032,-0.8025,-0.8011,-0.7988,-0.8032,-0.8052,-0.8059,-0.7959,-0.7958,-0.7958,-0.7957,0,0,-0.7871,-0.7886,-0.7894,-0.7903,-0.7916,-0.7934,-0.7961,-0.7982,-0.7996,-0.8009,-0.8033,-0.8064,-0.8051,-0.8063,-0.8059,-0.8079,-0.8125,-0.8063,-0.8064,-0.8076,-0.8179,-0.8191,-0.82,-0.8118,-0.812,-0.8121,-0.8179,0,-0.7925,-0.7972,-0.7967,-0.8012,-0.8034,-0.802,-0.8044,-0.8055,-0.8058,-0.8078,-0.808,-0.8103,-0.8084,-0.8091,-0.8111,-0.8115,-0.8146,-0.8111,-0.8142,-0.8143,-0.8141,-0.821,-0.8222,-0.8277,-0.8186,-0.8187,-0.8188,0,-0.7993,-0.8009,-0.8057,-0.8067,-0.8076,-0.8098,-0.8117,-0.8136,-0.8148,-0.8149,-0.8162,-0.8155,-0.8184,-0.8158,-0.8199,-0.8175,-0.8187,-0.8191,-0.8193,-0.8198,-0.817,-0.8218,-0.8294,-0.8303,-0.82,-0.8199,-0.8198,0,-0.8042,-0.8075,-0.8108,-0.8116,-0.8129,-0.8144,-0.8151,-0.8162,-0.8175,-0.8192,-0.82,-0.822,-0.8232,-0.8248,-0.8246,-0.8228,-0.8288,-0.8262,-0.8291,-0.8291,-0.8306,-0.8305,-0.8387,-0.831,-0.831,-0.831,-0.831,0,-0.8104,-0.8134,-0.813,-0.8151,-0.8185,-0.8179,-0.8213,-0.8217,-0.8227,-0.8249,-0.8237,-0.8259,-0.8254,-0.8276,-0.8275,-0.831,-0.8314,-0.8317,-0.8317,-0.8319,-0.8319,-0.8329,-0.8326,-0.8312,-0.8312,-0.8311,-0.8311,0,-0.8165,-0.8163,-0.8199,-0.8208,-0.8211,-0.8235,-0.8244,-0.8264,-0.8265,-0.8293,-0.8299,-0.8302,-0.8326,-0.8326,-0.8354,-0.8353,-0.8396,-0.8391,-0.8392,-0.8392,-0.8421,-0.8419,-0.8513,-0.8526,-0.8439,-0.844,-0.8441,0,-0.8205,-0.8228,-0.8239,-0.8253,-0.826,-0.8282,-0.8295,-0.829,-0.8304,-0.8321,-0.8339,-0.8362,-0.8381,-0.8421,-0.8426,-0.8448,-0.8444,-0.8475,-0.8447,-0.8449,-0.8447,-0.8446,-0.845,-0.8481,-0.8482,-0.8483,-0.8484,0,-0.8277,-0.8276,-0.8294,-0.8314,-0.8329,-0.8344,-0.8358,-0.837,-0.8367,-0.8383,-0.8408,-0.8422,-0.8451,-0.8475,-0.8496,-0.8503,-0.8494,-0.8492,-0.85,-0.8504,-0.8505,-0.8507,-0.8409,-0.8491,-0.849,-0.8489,-0.8489,-0.8489,-0.8331,-0.8351,-0.8362,-0.8384,-0.8393,-0.8407,-0.8426,-0.843,-0.845,-0.8472,-0.8468,-0.8496,-0.8509,-0.8536,-0.8545,-0.8568,-0.8557,-0.8568,-0.8572,-0.8575,-0.858,-0.8499,-0.8571,-0.8571,-0.8571,-0.8571,-0.8571,0,-0.8404,-0.8411,-0.8431,-0.845,-0.8467,-0.8455,-0.847,-0.8486,-0.851,-0.8523,-0.8541,-0.857,-0.8593,-0.86,-0.8622,-0.8639,-0.8636,-0.8646,-0.8646,-0.8648,-0.8587,-0.8578,-0.8648,-0.8648,-0.8648,-0.8648,-0.8648,-0.8648,-0.8445,-0.8479,-0.8478,-0.8517,-0.8523,-0.855,-0.856,-0.8573,-0.8583,-0.8615,-0.8634,-0.8638,-0.8648,-0.8672,-0.8693,-0.8694,-0.8704,-0.8716,-0.8716,-0.866,-0.8652,-0.8645,-0.8637,-0.8718,-0.8718,-0.8776,-0.8776,-0.8777]},{"header":{"parameterUnit":"m.s-1","parameterCategory":1,"la1":30.2991,"la2":30.254,"lo1":-89.0895,"lo2":-89.0444,"dy":0.0017,"dx":0.0017,"nx":28,"ny":28,"refTime":"2025-06-22T03:00:00:Z","depth":0,"parameterNumber":3,"parameterNumberName":"V-component_of_WINDS"},"data":[0,0,0,0,0,0,0,0,0,0,0,0,0,0,0,0,0,0,0,0,0,0,0,0,0,0,0,0,0,0,0,0,0,0,0,0,0,0,0,0,0,0,0,0,0,0,0,0,0,0,0,0,0,0,0,0,0,0,2.8244,2.8245,0,2.8269,2.8269,2.8269,2.8229,2.8228,2.8226,2.8225,2.8248,2.8249,2.8251,0,0,0,0,0,0,0,0,0,0,0,0,0,2.8161,2.8163,2.8244,2.8245,2.8245,2.8269,2.8269,2.8269,2.8229,2.8227,2.8226,2.8224,2.8247,2.8249,2.8251,0,0,0,0,0,0,0,0,0,0,0,0,0,2.8192,2.8163,2.8244,2.8228,2.8227,2.8268,2.8269,2.8269,2.8229,2.8227,2.8225,2.8223,2.8246,2.8249,2.8252,2.831,0,0,2.826,2.8262,0,0,0,0,0,0,0,0,2.8191,2.8196,2.823,2.8229,2.8228,2.8244,2.8248,2.8283,2.823,2.8228,2.8225,2.8222,2.8248,2.825,2.8259,2.8311,2.8312,2.8261,2.8262,2.8263,2.8264,0,0,0,0,0,0,0,2.8189,2.8194,2.8254,2.8231,2.8229,2.8219,2.8221,2.8254,2.8249,2.8228,2.8226,2.8229,2.8247,2.8257,2.826,2.8312,2.826,2.8263,2.8265,2.8266,2.8411,2.8413,0,0,0,0,0,0,2.8189,2.8193,2.8253,2.8255,2.8204,2.8222,2.8224,2.8241,2.8249,2.8248,2.8231,2.8227,2.8253,2.8256,2.826,2.8327,2.8263,2.8266,2.8268,2.8409,2.8412,2.8414,0,0,0,0,0,0,2.8187,2.8195,2.8252,2.8223,2.8229,2.8225,2.8244,2.8242,2.8252,2.8251,2.8249,2.8242,2.8251,2.8256,2.8298,2.8327,2.8267,2.827,2.8406,2.841,2.8413,2.8463,0,0,0,0,0,0,2.8185,2.8194,2.8217,2.8224,2.8231,2.829,2.8246,2.8244,2.8257,2.8253,2.8261,2.826,2.825,2.8294,2.83,2.833,2.8272,2.8404,2.8408,2.8412,2.8458,2.8467,2.8475,0,0,0,0,0,2.8182,2.823,2.8218,2.8226,2.826,2.8292,2.8296,2.8284,2.826,2.8282,2.8281,2.826,2.8324,2.8298,2.8305,2.8337,2.8402,2.8407,2.8412,2.8455,2.8466,2.8475,0,0,0,0,0,0,2.8226,2.8231,2.8218,2.8269,2.8281,2.8285,2.8312,2.8296,2.8314,2.8309,2.8293,2.8295,2.834,2.8343,2.8314,2.8393,2.8358,2.8365,2.8389,2.8399,2.8407,2.8405,2.8274,0,0,0,0,0,2.8242,2.8269,2.8271,2.8316,2.8322,2.8317,2.833,2.832,2.8331,2.8335,2.8337,2.8348,2.837,2.8385,2.8406,2.8459,2.8459,2.8484,2.8493,2.8499,2.8505,2.8531,2.8542,2.843,2.843,2.843,0,0,2.8275,2.828,2.8298,2.8325,2.8333,2.8359,2.8321,2.8351,2.837,2.834,2.8378,2.8381,2.8391,2.8439,2.846,2.8442,2.8536,2.8506,2.8511,2.8512,2.8537,2.8548,2.8557,2.8433,2.8433,2.8432,0,0,2.8347,2.8355,2.8393,2.8401,2.8413,2.8409,2.8418,2.8425,2.8426,2.8465,2.8442,2.8464,2.8504,2.8512,2.8521,2.8597,2.8577,2.8604,2.8646,2.8672,2.8681,2.8689,2.8714,2.8723,2.8609,2.861,2.861,0,2.8386,2.8426,2.8414,2.8446,2.8457,2.8432,2.8469,2.8478,2.8496,2.8504,2.8485,2.8533,2.8539,2.8586,2.8605,2.8614,2.8622,2.8602,2.8681,2.8689,2.8696,2.8719,2.8729,2.8613,2.8612,2.8612,2.8612,0,2.8472,2.85,2.8529,2.8547,2.8562,2.8597,2.8589,2.8606,2.8595,2.8593,2.8632,2.8638,2.8658,2.867,2.8659,2.8716,2.8704,2.8684,2.8649,2.8709,2.8731,2.874,2.8617,2.8616,2.8615,2.8614,0,0,2.8571,2.8583,2.8593,2.8601,2.8612,2.8633,2.8666,2.8687,2.87,2.8714,2.874,2.8774,2.8754,2.8765,2.8755,2.8779,2.8836,2.8755,2.8755,2.8768,2.8896,2.891,2.8921,2.8824,2.8826,2.8827,2.8894,0,2.8642,2.8699,2.8689,2.8744,2.8768,2.8745,2.8773,2.8783,2.8781,2.8802,2.88,2.8823,2.8797,2.8803,2.8826,2.8824,2.8861,2.8819,2.8846,2.8847,2.8842,2.8933,2.8947,2.9011,2.8903,2.8905,2.8906,0,2.8732,2.8748,2.8806,2.8812,2.8822,2.8848,2.8865,2.8886,2.8895,2.8893,2.8905,2.8891,2.8922,2.8889,2.8931,2.8903,2.8913,2.8914,2.8916,2.8916,2.8878,2.8933,2.9031,2.904,2.8919,2.8918,2.8917,0,2.8796,2.8833,2.8871,2.8879,2.8888,2.8906,2.8911,2.8919,2.8931,2.8947,2.8954,2.8974,2.8983,2.8998,2.8989,2.8965,2.9032,2.8998,2.9029,2.9029,2.9042,2.9041,2.9141,2.9053,2.9053,2.9053,2.9052,0,2.8874,2.8909,2.89,2.8923,2.8962,2.895,2.8989,2.899,2.8998,2.902,2.9002,2.9023,2.9011,2.9031,2.9024,2.9059,2.9064,2.9062,2.9059,2.9062,2.9062,2.9067,2.9062,2.9055,2.9055,2.9054,2.9054,0,2.8951,2.8947,2.8987,2.8992,2.8995,2.9022,2.9027,2.9048,2.9046,2.9074,2.908,2.9077,2.9099,2.9092,2.9117,2.9112,2.9156,2.9149,2.9152,2.915,2.918,2.9177,2.9285,2.9298,2.9204,2.9205,2.9206,0,2.9,2.9027,2.9035,2.9049,2.9055,2.9078,2.9091,2.9081,2.9095,2.9108,2.9127,2.9149,2.9165,2.9202,2.9201,2.9219,2.9211,2.9248,2.9214,2.9215,2.9209,2.9206,2.9208,2.9254,2.9255,2.9256,2.9257,0,2.9088,2.9084,2.9103,2.9122,2.9138,2.9152,2.9164,2.9176,2.9167,2.9183,2.9206,2.9219,2.9244,2.9265,2.9282,2.9285,2.9269,2.9268,2.9275,2.9278,2.9278,2.9276,2.9168,2.9265,2.9264,2.9263,2.9263,2.9263,2.9151,2.9173,2.9182,2.9203,2.9212,2.9223,2.9243,2.9244,2.9263,2.9283,2.9276,2.9302,2.931,2.9331,2.9337,2.9357,2.9342,2.9354,2.9357,2.9359,2.9362,2.9277,2.936,2.936,2.9359,2.9359,2.9359,0,2.9235,2.9239,2.926,2.9278,2.9295,2.9279,2.9292,2.9306,2.933,2.9339,2.9356,2.9382,2.9402,2.9402,2.9421,2.9436,2.9429,2.9441,2.9439,2.9439,2.9375,2.9365,2.9447,2.9447,2.9446,2.9446,2.9446,2.9446,2.928,2.9316,2.9313,2.9352,2.9357,2.9382,2.939,2.9401,2.9408,2.9438,2.9455,2.9455,2.9461,2.9479,2.9497,2.9496,2.9503,2.9517,2.9514,2.9453,2.9444,2.9436,2.9426,2.9519,2.952,2.9576,2.9577,2.9577]}]]